{"data":{"norad_id":67654,"epoch":"2026-05-24T23:32:58.767072Z","epoch_age_seconds":69875,"freshness":"FRESH","line1":"1 67654U 26022G   26144.98123573  .00016101  00000+0  49978-3 0  9993","line2":"2 67654  97.2842 178.2234 0001315 102.9012 257.2378 15.33458481 17266","mean_motion":15.33458481,"eccentricity":0.0001315,"inclination_deg":97.2842,"raan_deg":178.2234,"arg_perigee_deg":102.9012,"mean_anomaly_deg":257.2378,"bstar":0.00049978,"rev_number":1726,"period_min":93.905379104946,"perigee_km":464.60312613215,"apogee_km":466.40300346919,"semimajor_km":6843.6400648007,"source":"CELESTRAK","updated_at":"2026-05-25T13:38:21.657558Z"}}